DW7764 Weather Reports


Display with metric or nautical units.
time (UTC)temp
F
wind
direction
speed
MPH
gust
MPH
rain 1hr
in
rain 24hr
in
rain mn
in
humidity
%
barometer
mb
20260906014523 73 128 0.0 2.0 0.00 0.00 0.00 72 1024.2
20260906013023 72 129 0.0 2.0 0.00 0.00 0.00 71 1024.3
20260906011523 73 129 0.0 2.0 0.00 0.00 0.00 74 1024.3
20260906010020 72 128 0.0 0.0 0.00 0.00 0.00 72 1024.4
20260906004518 72 129 0.0 1.0 0.00 0.00 0.00 76 1024.5
20260906003016 73 128 0.0 0.0 0.00 0.00 0.00 80 1024.6
20260906001525 73 128 1.0 2.0 0.00 0.00 0.00 81 1024.7
20260906000012 73 128 0.0 0.0 0.00 0.00 0.00 80 1024.8
20260905234508 73 129 0.0 1.0 0.00 0.00 0.00 78 1024.9
20260905233007 73 129 0.0 0.0 0.00 0.00 0.00 79 1025.0
20260905231512 73 128 0.0 1.0 0.00 0.00 0.00 81 1025.1
20260905230004 74 128 0.0 2.0 0.00 0.00 0.00 82 1025.2
20260905224502 75 129 0.0 0.0 0.00 0.00 0.00 83 1025.2
20260905223059 75 129 0.0 0.0 0.00 0.00 0.00 85 1025.2
20260905221600 75 128 0.0 0.0 0.00 0.00 0.00 86 1025.2
20260905220058 75 128 0.0 1.0 0.00 0.00 0.00 85 1025.2
20260905214555 75 128 0.0 1.0 0.00 0.00 0.00 84 1025.2
20260905213055 75 128 0.0 1.0 0.00 0.00 0.00 83 1025.2
20260905211554 76 128 0.0 0.0 0.00 0.00 0.00 83 1025.3
20260905210110 76 128 0.0 0.0 0.00 0.00 0.00 85 1025.3
20260905204557 77 128 0.0 0.0 0.00 0.00 0.00 83 1025.4
20260905203052 78 128 0.0 0.0 0.00 0.00 0.00 82 1025.4
20260905201552 79 128 0.0 0.0 0.00 0.00 0.00 83 1025.4
20260905200113 78 128 0.0 0.0 0.00 0.00 0.00 86 1025.2
20260905194552 79 129 0.0 0.0 0.00 0.00 0.00 85 1025.2
20260905193050 80 128 0.0 0.0 0.00 0.00 0.00 83 1025.2
20260905191550 80 129 0.0 1.0 0.00 0.00 0.00 83 1025.1
20260905190049 81 128 0.0 0.0 0.00 0.00 0.00 81 1025.1
20260905184555 81 129 0.0 1.0 0.00 0.00 0.00 80 1025.1
20260905183049 82 128 0.0 1.0 0.00 0.00 0.00 78 1024.9
20260905181549 83 128 0.0 4.0 0.00 0.00 0.00 75 1024.8
20260905180049 84 138 1.0 4.0 0.00 0.00 0.00 73 1024.7
20260905174546 85 110 1.0 4.0 0.00 0.00 0.00 70 1024.7
20260905173051 86 132 2.0 6.0 0.00 0.00 0.00 67 1024.6
20260905171545 87 168 2.0 7.0 0.00 0.00 0.00 64 1024.6
20260905170044 88 142 1.0 4.0 0.00 0.00 0.00 57 1024.6
20260905164545 89 122 0.0 4.0 0.00 0.00 0.00 53 1024.5
20260905163043 89 118 1.0 5.0 0.00 0.00 0.00 49 1024.5
20260905161542 89 103 2.0 6.0 0.00 0.00 0.00 48 1024.5
20260905160041 90 211 0.0 7.0 0.00 0.00 0.00 47 1024.6
20260905154540 91 107 2.0 7.0 0.00 0.00 0.00 42 1024.6
20260905153040 91 138 5.0 10.0 0.00 0.00 0.00 40 1024.6
20260905151539 91 151 2.0 10.0 0.00 0.00 0.00 39 1024.6
20260905150039 91 173 2.0 9.0 0.00 0.00 0.00 40 1024.8
20260905144545 92 134 0.0 8.0 0.00 0.00 0.00 40 1024.9
20260905143039 92 97 4.0 9.0 0.00 0.00 0.00 38 1025.0
20260905141537 91 180 3.0 10.0 0.00 0.00 0.00 39 1025.0
20260905140035 92 191 4.0 12.0 0.00 0.00 0.00 36 1025.1
20260905134539 93 218 3.0 10.0 0.00 0.00 0.00 36 1025.1
20260905133035 92 219 4.0 14.0 0.00 0.00 0.00 36 1025.2
20260905131536 94 90 2.0 8.0 0.00 0.00 0.00 34 1025.3
20260905130032 93 116 2.0 10.0 0.00 0.00 0.00 35 1025.3
20260905124534 94 128 4.0 12.0 0.00 0.00 0.00 33 1025.3
20260905123055 93 105 5.0 10.0 0.00 0.00 0.00 34 1025.4
20260905121529 93 142 5.0 10.0 0.00 0.00 0.00 34 1025.5
20260905120029 93 191 5.0 10.0 0.00 0.00 0.00 34 1025.6
20260905114525 93 191 4.0 11.0 0.00 0.00 0.00 35 1025.6
20260905113028 93 110 2.0 10.0 0.00 0.00 0.00 34 1025.8
20260905111525 93 108 4.0 11.0 0.00 0.00 0.00 33 1025.8
20260905110022 93 153 5.0 11.0 0.00 0.00 0.00 35 1025.6
20260905104521 94 125 4.0 8.0 0.00 0.00 0.00 35 1025.6
20260905103024 94 72 1.0 8.0 0.00 0.00 0.00 34 1025.7
20260905101518 93 118 0.0 8.0 0.00 0.00 0.00 40 1025.7
20260905100017 92 121 4.0 7.0 0.00 0.00 0.00 41 1025.8
20260905094517 93 104 2.0 6.0 0.00 0.00 0.00 40 1025.7
20260905093015 93 5 0.0 1.0 0.00 0.00 0.00 39 1025.7
20260905091513 92 131 0.0 6.0 0.00 0.00 0.00 41 1025.7
20260905090010 92 158 0.0 0.0 0.00 0.00 0.00 41 1025.5
20260905084507 91 158 0.0 0.0 0.00 0.00 0.00 46 1025.4
20260905083003 89 158 0.0 0.0 0.00 0.00 0.00 50 1025.3
20260905081559 86 158 0.0 0.0 0.00 0.00 0.00 56 1025.2
20260905080134 85 158 0.0 0.0 0.00 0.00 0.00 59 1025.1
20260905074551 82 158 0.0 0.0 0.00 0.00 0.00 63 1025.1
20260905073047 78 158 0.0 0.0 0.00 0.00 0.00 69 1025.0
20260905071546 76 158 0.0 0.0 0.00 0.00 0.00 71 1025.0
20260905070051 74 276 0.0 0.0 0.00 0.00 0.00 73 1024.9
20260905064551 73 276 0.0 0.0 0.00 0.00 0.00 77 1024.7
20260905063043 71 276 0.0 0.0 0.00 0.00 0.00 79 1024.6
20260905061540 70 276 0.0 0.0 0.00 0.00 0.00 82 1024.5
20260905060047 69 276 0.0 0.0 0.00 0.00 0.00 82 1024.5
20260905054538 69 276 0.0 0.0 0.00 0.00 0.00 82 1024.3
20260905053032 68 276 0.0 0.0 0.00 0.00 0.00 82 1024.1
20260905051531 69 276 0.0 0.0 0.00 0.00 0.00 82 1023.9
20260905050028 68 276 0.0 0.0 0.00 0.00 0.00 81 1024.0
20260905044536 68 276 0.0 0.0 0.00 0.00 0.00 82 1024.0
20260905043028 68 276 0.0 0.0 0.00 0.00 0.00 82 1023.8
20260905041525 68 276 0.0 0.0 0.00 0.00 0.00 82 1023.6
20260905040034 68 276 0.0 0.0 0.00 0.00 0.00 82 1023.6
20260905034523 69 276 0.0 0.0 0.00 0.00 0.00 83 1023.7
20260905033022 69 276 0.0 0.0 0.00 0.00 0.00 85 1023.7
20260905031533 69 276 0.0 0.0 0.00 0.00 0.00 86 1023.4
20260905030020 69 276 0.0 0.0 0.00 0.00 0.00 85 1023.5
20260905024520 69 276 0.0 0.0 0.00 0.00 0.00 84 1023.4
20260905023020 70 276 0.0 0.0 0.00 0.00 0.00 85 1023.5
20260905021530 70 276 0.0 0.0 0.00 0.00 0.00 86 1023.4
20260905020015 70 275 0.0 0.0 0.00 0.00 0.00 88 1023.4